Regional Weather Roundup
Issued by NWS

Home | Current Version | Previous Version | Graphics & Text | Print | Product List | Glossary On
Versions: 1 2 3 4 5 6 7 8 9 10 11 12 13 14 15 16 17 18 19 20 21 22 23 24 25 26 27 28 29 30 31 32 33 34 35 36 37 38 39 40 41 42 43 44 45 46 47 48 49 50
000
ASUS43 KFSD 230710
RWRSD

WEATHER ROUNDUP FOR SOUTH DAKOTA
NATIONAL WEATHER SERVICE SIOUX FALLS SD
200 AM CDT WED JUL 23 2014

NOTE: "FAIR" INDICATES FEW OR NO CLOUDS BELOW 12,000 FEET WITH NO
SIGNIFICANT WEATHER AND/OR OBSTRUCTIONS TO VISIBILITY.


SDZ001>005-009-010-012>017-230800-
NORTHWEST AND NORTH CENTRAL SOUTH DAKOTA

CITY           SKY/WX    TMP DP  RH WIND       PRES   REMARKS
BUFFALO          N/A     63  59  87 E10       30.17F
FAITH            N/A     64  61  90 S6        30.27R
MOBRIDGE       PTCLDY    66  61  84 E7        30.23R
$$

SDZ012>016-024>037-041>051-057-063-072>074-230800-
SOUTHWEST AND SOUTH CENTRAL SOUTH DAKOTA

CITY           SKY/WX    TMP DP  RH WIND       PRES   REMARKS
RAPID CTY ARPT MOCLDY    67  63  87 SW7       30.26F
PIERRE         PTCLDY    66  60  81 E9        30.21S
CUSTER         PTCLDY    62  57  83 N12       30.45R THUNDER
ELLSWORTH AFB  TSTM      70  64  83 NW20G29   30.39R
PHILIP         CLOUDY    71  58  63 E10       30.21F
PINE RIDGE     PTCLDY    67  64  90 SE9       30.28F
WINNER         FAIR      69  58  67 SE12      30.23F
$$

SDZ004>011-016>023-039-040-230800-
NORTHEAST SOUTH DAKOTA

CITY           SKY/WX    TMP DP  RH WIND       PRES   REMARKS
ABERDEEN       MOCLDY    62  59  90 E5        30.25F
WATERTOWN      PTCLDY    61  56  83 CALM      30.28R
SISSETON         N/A     59  58  96 NW6       30.26R
$$

SDZ017-020-022-023-036>040-048>070-230800-
SOUTHEAST SOUTH DAKOTA

CITY           SKY/WX    TMP DP  RH WIND       PRES   REMARKS
SIOUX FALLS    CLEAR     63  57  81 N5        30.25F
HURON          MOCLDY    64  58  80 E3        30.24R
CHAMBERLAIN    CLOUDY    66  59  80 CALM      30.26R
MITCHELL       MOCLDY    64  61  90 E6        30.24R
YANKTON        PTCLDY    64  59  82 SE3       30.23F
$$

ABBREVIATIONS USED IN REMARKS
   TC - TEMPERATURE IN CELSIUS
  WCI - WIND CHILL INDEX
   HX - HEAT INDEX
  VSB - VISIBILITY




USA.gov is the U.S. government's official web portal to all federal, state and local government web resources and services.